Location: Newark
(43.6583°N, 1.6617°E)
Time: 22:47:04
(UTC+00:00)

Transit 4A - Pass Details

Date: 26 August 2019
Orbit: 865 x 980 km, 66.8° (Epoch: 15 September)

Event Time Altitude Azimuth Distance (km) Brightness Sun altitude
Rises 18:28:00 0° 245° (WSW) 3,672 11.9 1.3°
Reaches altitude 10° 18:30:55 10° 256° (WSW) 2,729 11.6 0.8°
Maximum altitude 18:36:28 30° 316° (NW) 1,671 10.1 -0.2°
Drops below altitude 10° 18:42:01 10° 16° (NNE) 2,719 10.4 -1.2°
Sets 18:44:55 0° 27° (NNE) 3,655 10.9 -1.7°
